| time (UTC) | temp F | wind direction | speed MPH | gust MPH | rain 1hr in | rain 24hr in | rain mn in | humidity % | barometer mb |
| 20260508225004 | 56 | 222 | 6.0 | 10.0 | 0.00 | 0.00 | 0.00 | 58 | 1023.4 |
| 20260508224004 | 55 | 223 | 6.0 | 11.0 | 0.00 | 0.00 | 0.00 | 59 | 1023.4 |
| 20260508223004 | 56 | 201 | 2.0 | 9.0 | 0.00 | 0.00 | 0.00 | 57 | 1023.4 |
| 20260508222004 | 56 | 225 | 3.0 | 11.0 | 0.00 | 0.00 | 0.00 | 56 | 1023.4 |
| 20260508221004 | 57 | 222 | 8.0 | 12.0 | 0.00 | 0.00 | 0.00 | 55 | 1023.2 |
| 20260508220004 | 57 | 210 | 4.0 | 11.0 | 0.00 | 0.00 | 0.00 | 54 | 1023.2 |
| 20260508215004 | 57 | 214 | 6.0 | 11.0 | 0.00 | 0.00 | 0.00 | 54 | 1023.2 |
| 20260508214004 | 58 | 218 | 3.0 | 11.0 | 0.00 | 0.00 | 0.00 | 52 | 1023.2 |
| 20260508213003 | 58 | 237 | 4.0 | 14.0 | 0.00 | 0.00 | 0.00 | 51 | 1023.1 |
| 20260508212004 | 59 | 222 | 7.0 | 15.0 | 0.00 | 0.00 | 0.00 | 50 | 1022.8 |
| 20260508211004 | 59 | 227 | 6.0 | 17.0 | 0.00 | 0.00 | 0.00 | 50 | 1022.7 |
| 20260508210004 | 59 | 227 | 5.0 | 15.0 | 0.00 | 0.00 | 0.00 | 50 | 1022.6 |
| 20260508205004 | 59 | 232 | 4.0 | 13.0 | 0.00 | 0.00 | 0.00 | 50 | 1022.5 |
| 20260508204004 | 59 | 239 | 9.0 | 17.0 | 0.00 | 0.00 | 0.00 | 49 | 1022.4 |
| 20260508203003 | 59 | 260 | 5.0 | 13.0 | 0.00 | 0.00 | 0.00 | 50 | 1022.4 |
| 20260508202004 | 59 | 236 | 4.0 | 16.0 | 0.00 | 0.00 | 0.00 | 49 | 1022.4 |
| 20260508201004 | 60 | 229 | 7.0 | 15.0 | 0.00 | 0.00 | 0.00 | 49 | 1022.2 |
| 20260508200004 | 60 | 249 | 3.0 | 16.0 | 0.00 | 0.00 | 0.00 | 48 | 1022.2 |
| 20260508195004 | 60 | 228 | 4.0 | 13.0 | 0.00 | 0.00 | 0.00 | 48 | 1022.2 |
| 20260508194004 | 60 | 241 | 4.0 | 11.0 | 0.00 | 0.00 | 0.00 | 47 | 1022.1 |
| 20260508193003 | 60 | 223 | 6.0 | 15.0 | 0.00 | 0.00 | 0.00 | 46 | 1022.1 |
| 20260508192004 | 61 | 234 | 7.0 | 17.0 | 0.00 | 0.00 | 0.00 | 46 | 1022.1 |
| 20260508191003 | 61 | 218 | 11.0 | 17.0 | 0.00 | 0.00 | 0.00 | 46 | 1022.1 |
| 20260508190003 | 60 | 249 | 6.0 | 13.0 | 0.00 | 0.00 | 0.00 | 46 | 1022.0 |
| 20260508185004 | 60 | 231 | 8.0 | 15.0 | 0.00 | 0.00 | 0.00 | 46 | 1022.1 |
| 20260508184003 | 61 | 246 | 8.0 | 15.0 | 0.00 | 0.00 | 0.00 | 46 | 1022.2 |
| 20260508183003 | 61 | 243 | 6.0 | 18.0 | 0.00 | 0.00 | 0.00 | 45 | 1022.0 |
| 20260508182005 | 61 | 244 | 4.0 | 15.0 | 0.00 | 0.00 | 0.00 | 46 | 1022.1 |
| 20260508181005 | 61 | 237 | 5.0 | 15.0 | 0.00 | 0.00 | 0.00 | 46 | 1022.3 |
| 20260508180005 | 61 | 243 | 5.0 | 15.0 | 0.00 | 0.00 | 0.00 | 46 | 1022.2 |
| 20260508175005 | 61 | 255 | 6.0 | 15.0 | 0.00 | 0.00 | 0.00 | 45 | 1022.2 |
| 20260508174005 | 61 | 245 | 6.0 | 12.0 | 0.00 | 0.00 | 0.00 | 45 | 1022.1 |
| 20260508173005 | 61 | 243 | 4.0 | 12.0 | 0.00 | 0.00 | 0.00 | 44 | 1022.0 |
| 20260508172005 | 61 | 232 | 6.0 | 13.0 | 0.00 | 0.00 | 0.00 | 44 | 1022.0 |
| 20260508171005 | 62 | 261 | 4.0 | 12.0 | 0.00 | 0.00 | 0.00 | 44 | 1022.3 |
| 20260508170005 | 62 | 259 | 4.0 | 11.0 | 0.00 | 0.00 | 0.00 | 44 | 1022.0 |
| 20260508165005 | 62 | 253 | 3.0 | 13.0 | 0.00 | 0.00 | 0.00 | 43 | 1022.1 |
| 20260508164005 | 62 | 241 | 3.0 | 11.0 | 0.00 | 0.00 | 0.00 | 42 | 1022.1 |
| 20260508163005 | 63 | 267 | 4.0 | 12.0 | 0.00 | 0.00 | 0.00 | 41 | 1022.2 |
| 20260508162005 | 63 | 274 | 4.0 | 14.0 | 0.00 | 0.00 | 0.00 | 40 | 1022.0 |
| 20260508161005 | 63 | 248 | 8.0 | 12.0 | 0.00 | 0.00 | 0.00 | 39 | 1021.9 |
| 20260508160006 | 64 | 248 | 5.0 | 15.0 | 0.00 | 0.00 | 0.00 | 38 | 1021.9 |
| 20260508155005 | 64 | 246 | 8.0 | 17.0 | 0.00 | 0.00 | 0.00 | 37 | 1022.1 |
| 20260508154005 | 64 | 251 | 5.0 | 15.0 | 0.00 | 0.00 | 0.00 | 36 | 1022.0 |
| 20260508153005 | 64 | 254 | 6.0 | 16.0 | 0.00 | 0.00 | 0.00 | 36 | 1021.9 |
| 20260508152005 | 64 | 246 | 7.0 | 12.0 | 0.00 | 0.00 | 0.00 | 36 | 1022.1 |
| 20260508151005 | 64 | 241 | 8.0 | 13.0 | 0.00 | 0.00 | 0.00 | 35 | 1022.0 |
| 20260508150006 | 64 | 238 | 7.0 | 14.0 | 0.00 | 0.00 | 0.00 | 35 | 1022.2 |
| 20260508145005 | 64 | 267 | 4.0 | 14.0 | 0.00 | 0.00 | 0.00 | 35 | 1022.3 |
| 20260508144004 | 64 | 255 | 5.0 | 10.0 | 0.00 | 0.00 | 0.00 | 36 | 1022.3 |
| 20260508143005 | 64 | 263 | 6.0 | 10.0 | 0.00 | 0.00 | 0.00 | 36 | 1022.3 |
| 20260508142005 | 64 | 241 | 3.0 | 11.0 | 0.00 | 0.00 | 0.00 | 36 | 1022.4 |
| 20260508141005 | 64 | 242 | 3.0 | 12.0 | 0.00 | 0.00 | 0.00 | 36 | 1022.4 |
| 20260508140005 | 64 | 243 | 4.0 | 8.0 | 0.00 | 0.00 | 0.00 | 37 | 1022.4 |
| 20260508135005 | 65 | 254 | 3.0 | 11.0 | 0.00 | 0.00 | 0.00 | 37 | 1022.3 |
| 20260508134005 | 65 | 269 | 6.0 | 16.0 | 0.00 | 0.00 | 0.00 | 37 | 1022.2 |
| 20260508133005 | 65 | 258 | 5.0 | 15.0 | 0.00 | 0.00 | 0.00 | 38 | 1022.2 |
| 20260508132005 | 65 | 258 | 4.0 | 16.0 | 0.00 | 0.00 | 0.00 | 39 | 1022.3 |
| 20260508131005 | 65 | 261 | 6.0 | 11.0 | 0.00 | 0.00 | 0.00 | 41 | 1022.3 |
| 20260508130005 | 65 | 244 | 6.0 | 11.0 | 0.00 | 0.00 | 0.00 | 42 | 1022.3 |
| 20260508125005 | 65 | 271 | 5.0 | 12.0 | 0.00 | 0.00 | 0.00 | 42 | 1022.2 |
| 20260508124005 | 65 | 272 | 5.0 | 11.0 | 0.00 | 0.00 | 0.00 | 43 | 1022.0 |
| 20260508123004 | 65 | 264 | 4.0 | 15.0 | 0.00 | 0.00 | 0.00 | 42 | 1022.1 |
| 20260508122005 | 65 | 270 | 6.0 | 11.0 | 0.00 | 0.00 | 0.00 | 43 | 1022.1 |
| 20260508121005 | 66 | 258 | 5.0 | 11.0 | 0.00 | 0.00 | 0.00 | 42 | 1022.1 |
| 20260508120005 | 66 | 260 | 4.0 | 11.0 | 0.00 | 0.00 | 0.00 | 42 | 1022.0 |
| 20260508115005 | 66 | 295 | 5.0 | 11.0 | 0.00 | 0.00 | 0.00 | 42 | 1021.9 |
| 20260508114004 | 66 | 274 | 5.0 | 15.0 | 0.00 | 0.00 | 0.00 | 41 | 1021.7 |
| 20260508113005 | 66 | 267 | 4.0 | 9.0 | 0.00 | 0.00 | 0.00 | 42 | 1021.8 |
| 20260508112004 | 66 | 279 | 4.0 | 8.0 | 0.00 | 0.00 | 0.00 | 42 | 1021.9 |
| 20260508111005 | 66 | 278 | 2.0 | 10.0 | 0.00 | 0.00 | 0.00 | 42 | 1021.8 |
| 20260508110005 | 66 | 280 | 4.0 | 7.0 | 0.00 | 0.00 | 0.00 | 42 | 1021.9 |
| 20260508105005 | 67 | 280 | 2.0 | 7.0 | 0.00 | 0.00 | 0.00 | 41 | 1021.9 |
| 20260508104004 | 67 | 276 | 2.0 | 7.0 | 0.00 | 0.00 | 0.00 | 40 | 1022.0 |
| 20260508103005 | 68 | 267 | 4.0 | 10.0 | 0.00 | 0.00 | 0.00 | 39 | 1021.8 |
| 20260508102005 | 68 | 281 | 4.0 | 9.0 | 0.00 | 0.00 | 0.00 | 38 | 1021.8 |
| 20260508101004 | 69 | 274 | 4.0 | 10.0 | 0.00 | 0.00 | 0.00 | 38 | 1021.8 |
| 20260508100005 | 69 | 276 | 3.0 | 11.0 | 0.00 | 0.00 | 0.00 | 38 | 1021.7 |
| 20260508095004 | 69 | 270 | 4.0 | 11.0 | 0.00 | 0.00 | 0.00 | 38 | 1021.8 |
| 20260508094005 | 70 | 262 | 4.0 | 12.0 | 0.00 | 0.00 | 0.00 | 37 | 1021.8 |
| 20260508093004 | 70 | 269 | 5.0 | 13.0 | 0.00 | 0.00 | 0.00 | 36 | 1021.7 |
| 20260508092004 | 71 | 262 | 7.0 | 11.0 | 0.00 | 0.00 | 0.00 | 36 | 1021.7 |
| 20260508091005 | 71 | 271 | 5.0 | 13.0 | 0.00 | 0.00 | 0.00 | 36 | 1021.5 |
| 20260508090005 | 73 | 281 | 7.0 | 15.0 | 0.00 | 0.00 | 0.00 | 34 | 1021.4 |
| 20260508085004 | 73 | 282 | 8.0 | 16.0 | 0.00 | 0.00 | 0.00 | 32 | 1021.3 |
| 20260508084005 | 74 | 258 | 8.0 | 15.0 | 0.00 | 0.00 | 0.00 | 30 | 1021.3 |
| 20260508083004 | 74 | 269 | 8.0 | 15.0 | 0.00 | 0.00 | 0.00 | 30 | 1021.2 |
| 20260508082005 | 75 | 263 | 6.0 | 12.0 | 0.00 | 0.00 | 0.00 | 30 | 1021.3 |
| 20260508081004 | 75 | 257 | 6.0 | 14.0 | 0.00 | 0.00 | 0.00 | 29 | 1021.4 |
| 20260508080004 | 74 | 267 | 8.0 | 16.0 | 0.00 | 0.00 | 0.00 | 28 | 1021.4 |
| 20260508075005 | 75 | 281 | 6.0 | 15.0 | 0.00 | 0.00 | 0.00 | 28 | 1021.4 |
| 20260508074004 | 75 | 271 | 9.0 | 17.0 | 0.00 | 0.00 | 0.00 | 27 | 1021.4 |
| 20260508073005 | 75 | 242 | 9.0 | 17.0 | 0.00 | 0.00 | 0.00 | 29 | 1021.3 |
| 20260508072005 | 75 | 276 | 4.0 | 16.0 | 0.00 | 0.00 | 0.00 | 29 | 1021.3 |
| 20260508071005 | 75 | 301 | 5.0 | 16.0 | 0.00 | 0.00 | 0.00 | 28 | 1021.1 |
| 20260508070005 | 75 | 284 | 8.0 | 17.0 | 0.00 | 0.00 | 0.00 | 29 | 1021.2 |
| 20260508065004 | 75 | 248 | 6.0 | 16.0 | 0.00 | 0.00 | 0.00 | 30 | 1021.4 |
| 20260508064004 | 75 | 239 | 8.0 | 17.0 | 0.00 | 0.00 | 0.00 | 29 | 1021.4 |
| 20260508063005 | 75 | 259 | 11.0 | 17.0 | 0.00 | 0.00 | 0.00 | 29 | 1021.5 |
| 20260508062005 | 75 | 253 | 8.0 | 15.0 | 0.00 | 0.00 | 0.00 | 30 | 1021.5 |
| 20260508061004 | 74 | 277 | 8.0 | 15.0 | 0.00 | 0.00 | 0.00 | 31 | 1021.6 |
| 20260508060005 | 74 | 251 | 8.0 | 16.0 | 0.00 | 0.00 | 0.00 | 30 | 1021.9 |
| 20260508055004 | 74 | 220 | 8.0 | 16.0 | 0.00 | 0.00 | 0.00 | 29 | 1021.9 |
| 20260508054005 | 74 | 246 | 8.0 | 20.0 | 0.00 | 0.00 | 0.00 | 31 | 1022.1 |
| 20260508053004 | 74 | 237 | 6.0 | 15.0 | 0.00 | 0.00 | 0.00 | 32 | 1022.2 |
| 20260508052004 | 74 | 222 | 7.0 | 18.0 | 0.00 | 0.00 | 0.00 | 31 | 1022.3 |
| 20260508051004 | 74 | 250 | 4.0 | 15.0 | 0.00 | 0.00 | 0.00 | 33 | 1022.3 |
| 20260508050004 | 73 | 263 | 5.0 | 17.0 | 0.00 | 0.00 | 0.00 | 33 | 1022.4 |
| 20260508045005 | 72 | 247 | 8.0 | 15.0 | 0.00 | 0.00 | 0.00 | 35 | 1022.6 |
| 20260508044004 | 72 | 238 | 5.0 | 14.0 | 0.00 | 0.00 | 0.00 | 40 | 1022.8 |
| 20260508043004 | 71 | 248 | 8.0 | 15.0 | 0.00 | 0.00 | 0.00 | 40 | 1023.0 |
| 20260508042004 | 71 | 242 | 9.0 | 15.0 | 0.00 | 0.00 | 0.00 | 41 | 1023.2 |
| 20260508041004 | 70 | 248 | 8.0 | 17.0 | 0.00 | 0.00 | 0.00 | 42 | 1023.5 |
| 20260508040005 | 70 | 263 | 9.0 | 17.0 | 0.00 | 0.00 | 0.00 | 41 | 1023.7 |
| 20260508035004 | 70 | 237 | 8.0 | 16.0 | 0.00 | 0.00 | 0.00 | 42 | 1023.9 |
| 20260508034004 | 70 | 245 | 11.0 | 21.0 | 0.00 | 0.00 | 0.00 | 42 | 1024.2 |
| 20260508033004 | 69 | 254 | 7.0 | 17.0 | 0.00 | 0.00 | 0.00 | 43 | 1024.3 |
| 20260508032004 | 69 | 272 | 7.0 | 15.0 | 0.00 | 0.00 | 0.00 | 43 | 1024.5 |
| 20260508031004 | 69 | 231 | 7.0 | 21.0 | 0.00 | 0.00 | 0.00 | 42 | 1024.6 |
| 20260508030004 | 69 | 255 | 9.0 | 21.0 | 0.00 | 0.00 | 0.00 | 43 | 1024.8 |
| 20260508025004 | 69 | 213 | 7.0 | 18.0 | 0.00 | 0.00 | 0.00 | 44 | 1024.9 |
| 20260508024004 | 68 | 238 | 11.0 | 20.0 | 0.00 | 0.00 | 0.00 | 44 | 1025.1 |
| 20260508023004 | 67 | 217 | 5.0 | 23.0 | 0.00 | 0.00 | 0.00 | 45 | 1025.1 |
| 20260508022004 | 68 | 233 | 6.0 | 18.0 | 0.00 | 0.00 | 0.00 | 44 | 1024.9 |
| 20260508021004 | 67 | 229 | 11.0 | 26.0 | 0.00 | 0.00 | 0.00 | 44 | 1025.1 |
| 20260508020004 | 66 | 233 | 8.0 | 22.0 | 0.00 | 0.00 | 0.00 | 45 | 1025.2 |
| 20260508015004 | 66 | 215 | 15.0 | 21.0 | 0.00 | 0.00 | 0.00 | 43 | 1025.4 |
| 20260508014004 | 66 | 221 | 7.0 | 16.0 | 0.00 | 0.00 | 0.00 | 44 | 1025.4 |
| 20260508013004 | 66 | 222 | 8.0 | 15.0 | 0.00 | 0.00 | 0.00 | 44 | 1025.5 |
| 20260508012004 | 66 | 237 | 8.0 | 16.0 | 0.00 | 0.00 | 0.00 | 44 | 1025.7 |
| 20260508011004 | 66 | 214 | 7.0 | 16.0 | 0.00 | 0.00 | 0.00 | 45 | 1025.7 |
| 20260508010004 | 65 | 238 | 9.0 | 15.0 | 0.00 | 0.00 | 0.00 | 45 | 1025.9 |
| 20260508005003 | 65 | 235 | 7.0 | 13.0 | 0.00 | 0.00 | 0.00 | 46 | 1025.9 |
| 20260508004004 | 64 | 247 | 4.0 | 11.0 | 0.00 | 0.00 | 0.00 | 47 | 1026.0 |
| 20260508003005 | 64 | 230 | 4.0 | 11.0 | 0.00 | 0.00 | 0.00 | 47 | 1025.9 |
| 20260508002004 | 63 | 233 | 8.0 | 11.0 | 0.00 | 0.00 | 0.00 | 47 | 1026.0 |
| 20260508001003 | 62 | 249 | 2.0 | 9.0 | 0.00 | 0.00 | 0.00 | 49 | 1025.9 |
| 20260508000004 | 62 | 237 | 3.0 | 11.0 | 0.00 | 0.00 | 0.00 | 50 | 1025.9 |
| 20260507235004 | 61 | 253 | 3.0 | 11.0 | 0.00 | 0.00 | 0.00 | 50 | 1025.7 |
| 20260507234004 | 60 | 255 | 2.0 | 6.0 | 0.00 | 0.00 | 0.00 | 53 | 1025.8 |
| 20260507233004 | 59 | 246 | 2.0 | 8.0 | 0.00 | 0.00 | 0.00 | 54 | 1025.5 |
| 20260507232004 | 57 | 253 | 4.0 | 7.0 | 0.00 | 0.00 | 0.00 | 59 | 1025.4 |
| 20260507231004 | 57 | 230 | 4.0 | 7.0 | 0.00 | 0.00 | 0.00 | 60 | 1025.3 |
| 20260507230004 | 57 | 237 | 2.0 | 8.0 | 0.00 | 0.00 | 0.00 | 59 | 1025.1 |